Wind_Speed
47 48 44 34 26 24 31 33 31 14 26 25 28 30 31 28 28 33 28 25 23 24 25 26 26 23 23 23 20 21 17 18 20
50 48 43 40 33 29 33 36 34 24 24 33 29 27 28 31 31 30 32 30 31 30 29 31 30 29 29 26 26 23 22 26 28
47 46 45 42 41 32 36 33 28 34 30 39 32 31 30 34 35 37 34 34 32 34 32 32 34 35 34 31 29 27 27 26 29
50 49 46 43 43 38 38 36 32 36 43 35 37 33 39 39 40 40 36 35 32 34 33 28 27 33 33 30 30 29 31 31 31
39 47 48 48 48 40 39 38 38 32 44 38 35 35 33 34 40 42 42 40 39 37 37 32 28 31 32 36 35 33 31 30 30
41 46 45 44 44 44 44 39 36 31 32 36 42 40 35 34 37 45 44 43 43 43 42 41 39 38 35 35 34 34 37 37 38
43 40 47 46 51 46 46 43 42 40 40 44 46 40 35 37 34 40 45 47 46 45 44 41 39 38 39 38 37 37 36 39 40
38 37 49 47 48 51 51 52 50 54 51 49 43 37 36 39 38 38 42 44 41 41 42 41 41 39 36 35 36 38 36 35 36
40 43 49 54 51 53 55 55 58 53 57 54 46 46 42 41 39 42 44 43 44 42 41 38 40 39 37 38 38 40 39 39 35
38 44 49 55 56 57 55 59 61 59 58 56 41 42 47 48 43 42 43 42 44 45 45 41 40 38 36 36 35 37 38 38 40
41 38 49 52 56 63 63 61 62 66 63 53 48 48 52 52 50 47 49 45 46 46 43 46 40 41 40 39 39 37 35 33 36
45 44 43 51 54 60 68 67 68 65 64 63 47 61 51 57 52 50 49 46 46 46 44 44 42 43 43 41 42 40 42 38 39
55 51 48 42 50 55 65 74 66 68 66 71 70 61 66 52 52 50 47 48 45 47 49 46 46 43 44 42 45 43 42 40 38
54 54 52 45 47 55 58 75 74 70 78 60 75 64 66 57 53 50 51 54 49 49 50 46 45 45 42 45 46 46 47 42 45
60 52 53 54 49 52 56 69 78 76 81 77 73 62 69 63 60 59 58 56 51 49 47 47 46 43 49 52 42 42 42 44 39
65 63 57 53 52 46 53 54 73 84 80 84 81 60 69 65 65 62 58 61 60 58 53 47 51 41 45 49 54 51 51 51 49
62 63 64 60 60 52 50 52 56 77 75 83 84 76 68 70 70 64 59 54 54 56 54 52 50 43 43 43 57 55 60 59 52
66 71 70 68 62 60 57 51 56 60 72 80 78 80 71 71 72 67 63 65 56 52 47 46 52 54 49 52 58 54 58 53 53
72 71 68 66 73 69 67 62 57 56 68 70 83 83 75 71 73 73 69 62 63 65 61 56 50 61 57 62 57 60 63 64 65
77 74 74 70 71 67 66 68 69 61 64 70 82 88 84 74 79 73 73 70 61 64 61 59 61 60 62 72 74 74 69 71 76
Wind_Direction
254 255 255 248 228 220 224 230 239 247 262 248 235 240 242 238 237 238 234 225 224 233 231 228 223 233 232 229 229 237 235 233 240
254 252 250 244 229 226 221 229 231 215 244 261 243 238 244 246 237 236 232 229 231 236 242 234 237 245 242 240 247 240 231 236 244
241 235 247 237 231 221 225 226 228 219 226 238 254 248 250 252 243 235 234 229 234 243 250 244 239 244 244 245 244 246 238 243 248
224 238 243 231 223 232 229 221 223 228 232 237 247 255 259 252 246 238 233 233 237 247 242 237 240 232 237 244 247 246 245 246 247
228 223 229 230 232 225 230 224 223 232 228 237 242 243 247 246 240 233 232 230 231 233 236 241 243 242 241 233 242 245 250 249 244
236 226 220 221 222 220 220 218 219 227 221 230 240 235 242 242 240 235 234 234 235 239 243 246 253 255 252 248 244 245 249 250 250
228 225 222 219 215 217 216 224 218 209 212 225 235 234 236 249 243 239 238 240 239 242 244 249 251 253 253 252 249 248 248 250 254
238 220 217 220 217 216 218 220 219 223 224 217 221 235 240 244 241 238 238 235 238 239 243 245 243 236 238 237 241 242 247 248 250
234 228 218 218 221 214 214 223 225 224 222 218 223 224 225 241 235 234 237 240 239 235 241 241 239 241 241 243 245 245 248 249 246
245 230 222 214 211 221 221 219 230 226 216 220 219 238 234 229 232 236 238 239 239 241 240 238 246 244 241 239 245 248 248 249 249
252 245 223 222 219 211 220 220 224 226 220 226 221 232 236 230 233 233 237 241 241 243 243 245 247 250 253 256 256 249 247 246 244
249 251 240 225 223 221 211 217 221 217 222 218 234 228 229 231 234 233 235 240 240 242 247 244 246 247 254 256 260 254 250 242 248
253 253 249 237 226 220 219 212 214 220 222 221 219 226 221 228 231 236 237 239 240 236 242 247 252 256 251 257 259 252 248 247 249
252 252 250 247 238 221 220 215 210 210 217 222 220 221 225 219 228 231 241 239 236 237 240 246 251 250 251 246 244 245 244 245 250
250 250 250 248 244 232 220 216 215 212 217 222 221 228 224 218 229 228 233 236 236 239 237 239 240 255 262 258 250 256 249 247 248
247 250 249 251 246 240 228 224 220 217 220 221 219 227 223 221 225 229 236 237 239 238 236 242 251 255 254 255 260 265 254 248 249
246 246 249 250 248 242 239 232 229 222 220 221 221 222 229 223 226 234 231 227 226 231 235 237 249 244 242 256 236 250 247 254 264
245 246 247 248 249 250 249 243 228 233 223 219 219 225 227 231 227 226 230 228 230 222 228 226 228 231 243 230 241 236 249 251 249
243 245 244 246 247 250 252 246 238 235 228 224 219 220 226 230 231 223 225 228 229 230 236 228 219 231 232 211 237 239 238 254 254
237 244 244 239 243 245 244 246 247 237 232 228 224 219 221 228 222 222 226 227 225 223 229 228 219 226 225 233 249 240 241 244 242
Height
10796 10802 10808 10812 10816 10819 10820 10822 10822 10824 10826 10829 10830 10833 10836 10839 10842 10845 10849 10851 10854 10856 10858 10860 10861 10863 10865 10867 10870 10872 10873 10875 10877
10787 10791 10796 10803 10807 10811 10813 10814 10817 10819 10823 10822 10825 10828 10832 10835 10837 10840 10843 10846 10849 10852 10853 10856 10857 10859 10862 10864 10866 10868 10870 10872 10873
10775 10779 10784 10791 10796 10801 10806 10807 10810 10813 10817 10815 10818 10822 10825 10828 10831 10835 10837 10840 10843 10846 10848 10850 10852 10854 10856 10859 10861 10864 10866 10868 10869
10761 10769 10774 10780 10786 10792 10796 10800 10805 10808 10809 10811 10812 10815 10819 10822 10824 10827 10830 10834 10838 10840 10843 10845 10848 10849 10851 10853 10856 10859 10861 10863 10865
10750 10755 10763 10770 10775 10781 10786 10791 10796 10800 10803 10805 10807 10810 10812 10814 10818 10819 10823 10827 10831 10833 10836 10839 10842 10846 10845 10849 10852 10854 10855 10857 10859
10735 10744 10750 10756 10763 10769 10775 10782 10788 10793 10796 10798 10800 10801 10805 10806 10809 10813 10816 10820 10824 10826 10830 10833 10835 10839 10841 10843 10846 10849 10850 10852 10854
10725 10730 10736 10742 10752 10759 10766 10774 10780 10782 10787 10789 10790 10792 10796 10799 10802 10805 10809 10812 10817 10819 10823 10826 10829 10832 10835 10837 10839 10842 10844 10846 10848
10712 10719 10723 10730 10739 10747 10755 10762 10768 10771 10775 10777 10780 10783 10787 10791 10795 10798 10801 10805 10809 10812 10815 10819 10822 10824 10828 10831 10833 10836 10838 10840 10843
10700 10707 10713 10719 10725 10735 10742 10749 10755 10761 10764 10767 10772 10774 10779 10781 10787 10791 10793 10797 10802 10806 10809 10812 10814 10818 10821 10824 10827 10829 10832 10835 10837
10689 10695 10700 10706 10714 10723 10731 10737 10743 10751 10753 10759 10765 10767 10769 10773 10778 10782 10786 10790 10793 10798 10802 10805 10808 10810 10813 10817 10820 10822 10825 10828 10830
10677 10682 10688 10695 10701 10708 10717 10725 10733 10739 10746 10752 10755 10758 10759 10764 10767 10773 10777 10782 10785 10790 10793 10797 10800 10803 10806 10810 10813 10816 10819 10821 10824
10666 10671 10677 10682 10688 10694 10704 10712 10721 10728 10737 10741 10746 10744 10747 10751 10756 10763 10769 10772 10777 10781 10785 10789 10792 10795 10799 10802 10805 10808 10811 10813 10816
10654 10659 10665 10670 10676 10682 10688 10700 10708 10716 10725 10725 10723 10731 10737 10743 10747 10752 10758 10763 10768 10773 10777 10780 10784 10786 10789 10793 10796 10799 10802 10805 10808
10642 10647 10652 10657 10664 10669 10674 10683 10692 10701 10708 10704 10712 10720 10726 10732 10737 10742 10747 10752 10759 10764 10767 10771 10774 10777 10779 10782 10785 10788 10792 10797 10799
10630 10635 10639 10645 10651 10657 10662 10669 10677 10685 10693 10697 10704 10709 10714 10721 10727 10731 10736 10742 10749 10754 10758 10762 10765 10767 10769 10773 10774 10778 10781 10786 10789
10614 10621 10626 10632 10638 10643 10648 10654 10659 10667 10674 10684 10693 10699 10704 10710 10716 10721 10726 10733 10739 10745 10749 10754 10756 10760 10762 10761 10762 10764 10768 10775 10778
10598 10603 10610 10619 10624 10630 10635 10640 10644 10650 10658 10667 10679 10690 10694 10700 10704 10708 10715 10721 10727 10733 10739 10743 10749 10750 10757 10754 10748 10749 10754 10759 10763
10580 10586 10594 10603 10609 10615 10623 10628 10634 10637 10643 10652 10664 10675 10682 10683 10691 10698 10703 10711 10717 10724 10727 10732 10741 10741 10749 10746 10738 10742 10741 10743 10750
10563 10570 10579 10588 10592 10600 10608 10615 10619 10622 10629 10636 10647 10657 10664 10672 10680 10686 10690 10696 10706 10713 10717 10722 10729 10734 10740 10736 10735 10735 10734 10735 10739
10546 10553 10561 10569 10574 10583 10589 10597 10603 10608 10614 10622 10629 10640 10648 10657 10666 10671 10675 10683 10691 10698 10704 10710 10717 10720 10724 10723 10723 10724 10725 10725 10727